Location: Camaret
(48.2753°N, 4.5961°W)
Time: 04:25:57
(UTC+00:00)

Cosmos 1315 Rocket - Pass Details

Date: 29 October 2020
Orbit: 530 x 567 km, 81.2° (Epoch: 01 December)

Event Time Altitude Azimuth Distance (km) Brightness Sun altitude
Rises 17:40:56 0° 144° (SE) 2,684 6.1 -6.8°
Reaches altitude 10° 17:43:53 10° 119° (ESE) 1,806 5.0 -7.3°
Maximum altitude 17:46:03 14° 86° (E) 1,558 4.5 -7.6°
Drops below altitude 10° 17:48:13 10° 53° (NE) 1,827 4.9 -8.0°
Sets 17:51:14 0° 29° (NNE) 2,737 6.0 -8.5°
